Flag for U.S.A. Weather past 2 weeks in Philadelphia, Pennsylvania, U.S.A.

Now
73 °F

Partly sunny.


Feels Like: 77 °F
Forecast: 49 / 63 °F
Wind: 13 mph from Southwest

Location: Philadelphia International Airport

Current Time: Apr 18, 2015 at 9:10:58 PM

Latest Report: Apr 18, 2015 at 7:54 PM


Visibility: 10 mi

Pressure: 29.93 "Hg

Humidity: 33%

Dew point: 42 °F

Location of PhiladelphiaLocation

Historic Weather in Philadelphia — Graph

°F

Philadelphia temperature yesterday

Maximum temperature yesterday: 74 °F (at 3:54 PM)
Minimum temperature yesterday: 55 °F (at 4:54 AM)
Average temperature yesterday: 64 °F

Past Weeks' High & Low Weather Summary

 TemperatureHumidityPressure
High80 °F (Apr 18, 3:54 PM)100% (Apr 4, 12:54 AM)30.46 "Hg (Apr 4, 12:54 AM)
Low39 °F (Apr 8, 11:54 PM)14% (Apr 15, 2:54 PM)29.53 "Hg (Apr 4, 2:54 AM)
Average56 °F58%30.15 "Hg
* Reported Apr 3 7:54 PM — Apr 18 7:54 PM, Philadelphia, Weather by CustomWeather, © 2015

Note: Actual official high and low records may vary slightly from our data, if they occured in-between our weather recording intervals... More about our weather records

Advertising

Philadelphia weather history for previous 24 hours

 ConditionsComfort  
Time TempWeatherWind HumidityBarometerVisibility
7:54 PM
Sat, Apr 18
73 °FPartly sunny.13 mph33%29.93 "Hg10 mi
6:54 PM79 °FPartly sunny.14 mph25%29.93 "Hg10 mi
5:54 PM80 °FScattered clouds.12 mph25%29.92 "Hg10 mi
4:54 PM80 °FScattered clouds.14 mph22%29.91 "Hg10 mi
3:54 PM80 °FScattered clouds.13 mph21%29.91 "Hg10 mi
2:54 PM79 °FPartly sunny.7 mph20%29.93 "Hg10 mi
1:54 PM78 °FPartly sunny.9 mph19%29.95 "Hg10 mi
12:54 PM76 °FPartly sunny.6 mph23%29.97 "Hg10 mi
11:54 AM72 °FPartly sunny.7 mph40%30.00 "Hg10 mi
10:54 AM70 °FPartly sunny.6 mph46%30.02 "Hg10 mi
9:54 AM69 °FScattered clouds.3 mph47%30.03 "Hg10 mi
8:54 AM65 °FPassing clouds.No wind61%30.03 "Hg10 mi
7:54 AM62 °FPassing clouds.3 mph70%30.03 "Hg10 mi
6:54 AM57 °FPassing clouds.5 mph83%30.00 "Hg9 mi
5:54 AM57 °FPassing clouds.No wind87%29.98 "Hg8 mi
4:54 AM56 °FPassing clouds.3 mph87%29.97 "Hg8 mi
3:54 AM58 °FPassing clouds.3 mph84%29.98 "Hg8 mi
2:54 AM57 °FFog.No wind90%29.98 "Hg6 mi
1:54 AM60 °FPassing clouds.3 mph86%29.97 "Hg10 mi
12:54 AM60 °FPassing clouds.6 mph86%29.98 "Hg10 mi
11:54 PM
Fri, Apr 17
64 °FPassing clouds.No wind81%29.98 "Hg10 mi
10:54 PM65 °FPassing clouds.7 mph76%29.97 "Hg10 mi
9:54 PM66 °FPassing clouds.6 mph75%29.98 "Hg10 mi
Weather by CustomWeather, © 2015

See weather overviewHow to use our weather pages